JBU1776 MKJP-KFLL

Flight info

Callsign JBU1776
Flight time 1h 43m
Altitude 32000
Route OTUNU UL417 BORDO OLAHS3
Aircraft A320/M-SDE3FGHIRWY/LB1

Departure

Time 2026-05-06 00:42
Airport Norman Manley International Airport (MKJP)

Arrival

Time 2026-05-06 02:25
Airport Fort Lauderdale Hollywood International Airport (KFLL)
Time Latitude Longitude Altitude Speed Heading
2026-05-06 00:21 17.93572 -76.77979 14 ft 0 kts 355°
2026-05-06 00:33 17.93571 -76.77979 14 ft 1 kts 355°
2026-05-06 00:33 17.93558 -76.77977 14 ft 3 kts 354°
2026-05-06 00:33 17.93538 -76.77975 14 ft 3 kts 354°
2026-05-06 00:33 17.93517 -76.77973 16 ft 3 kts 354°
2026-05-06 00:34 17.93497 -76.77972 14 ft 3 kts 355°
2026-05-06 00:34 17.93477 -76.77970 14 ft 3 kts 356°
2026-05-06 00:34 17.93457 -76.77969 14 ft 3 kts 356°
2026-05-06 00:34 17.93438 -76.77968 14 ft 2 kts 355°
2026-05-06 00:35 17.93434 -76.77967 14 ft 1 kts 355°
2026-05-06 00:36 17.93435 -76.77967 14 ft 1 kts 354°
2026-05-06 00:37 17.93444 -76.77974 14 ft 3 kts 321°
2026-05-06 00:37 17.93450 -76.77999 14 ft 5 kts 276°
2026-05-06 00:37 17.93455 -76.78040 14 ft 7 kts 280°
2026-05-06 00:37 17.93473 -76.78094 16 ft 9 kts 290°
2026-05-06 00:38 17.93496 -76.78160 14 ft 11 kts 290°
2026-05-06 00:38 17.93525 -76.78238 15 ft 12 kts 295°
2026-05-06 00:38 17.93563 -76.78325 16 ft 14 kts 291°
2026-05-06 00:38 17.93600 -76.78426 14 ft 16 kts 291°
2026-05-06 00:39 17.93642 -76.78536 14 ft 17 kts 292°
2026-05-06 00:39 17.93689 -76.78653 14 ft 18 kts 293°
2026-05-06 00:39 17.93740 -76.78779 14 ft 19 kts 293°
2026-05-06 00:39 17.93790 -76.78917 15 ft 20 kts 291°
2026-05-06 00:40 17.93845 -76.79059 14 ft 22 kts 292°
2026-05-06 00:40 17.93903 -76.79208 14 ft 23 kts 292°
2026-05-06 00:40 17.93965 -76.79368 14 ft 24 kts 292°
2026-05-06 00:40 17.94030 -76.79537 13 ft 26 kts 292°
2026-05-06 00:41 17.94090 -76.79718 15 ft 27 kts 279°
2026-05-06 00:41 17.94092 -76.79904 13 ft 21 kts 225°
2026-05-06 00:41 17.93990 -76.79861 14 ft 18 kts 110°
2026-05-06 00:41 17.93917 -76.79654 13 ft 58 kts 111°
2026-05-06 00:42 17.93685 -76.79067 15 ft 113 kts 112°
2026-05-06 00:42 17.93328 -76.78158 42 ft 152 kts 113°
2026-05-06 00:42 17.92933 -76.77159 663 ft 142 kts 112°
2026-05-06 00:42 17.92536 -76.76223 1200 ft 135 kts 112°
2026-05-06 00:43 17.92135 -76.75341 1599 ft 140 kts 112°
2026-05-06 00:43 17.91727 -76.74370 1861 ft 149 kts 111°
2026-05-06 00:43 17.91302 -76.73377 2235 ft 149 kts 112°
2026-05-06 00:43 17.90873 -76.72375 2583 ft 154 kts 112°
2026-05-06 00:44 17.90425 -76.71320 2807 ft 168 kts 111°
2026-05-06 00:44 17.89922 -76.70119 2991 ft 190 kts 112°
2026-05-06 00:44 17.89321 -76.68789 3292 ft 212 kts 114°
2026-05-06 00:44 17.88640 -76.67345 3699 ft 231 kts 113°
2026-05-06 00:45 17.87971 -76.65724 4117 ft 250 kts 111°
2026-05-06 00:45 17.87300 -76.64008 4883 ft 255 kts 111°
2026-05-06 00:45 17.86628 -76.62292 5649 ft 260 kts 111°
2026-05-06 00:45 17.85922 -76.60532 6411 ft 264 kts 111°
2026-05-06 00:46 17.85186 -76.58741 7084 ft 269 kts 112°
2026-05-06 00:46 17.84428 -76.56921 7769 ft 273 kts 112°
2026-05-06 00:46 17.83657 -76.55079 8412 ft 279 kts 113°
2026-05-06 00:46 17.82867 -76.53204 9013 ft 284 kts 114°
2026-05-06 00:47 17.82063 -76.51298 9661 ft 288 kts 114°
2026-05-06 00:47 17.81248 -76.49357 10178 ft 295 kts 114°
2026-05-06 00:47 17.80388 -76.47315 10323 ft 317 kts 114°
2026-05-06 00:47 17.79465 -76.45134 10447 ft 336 kts 114°
2026-05-06 00:48 17.78489 -76.42832 10560 ft 354 kts 114°
2026-05-06 00:48 17.77466 -76.40416 10805 ft 366 kts 114°
2026-05-06 00:48 17.76435 -76.37987 11251 ft 371 kts 114°
2026-05-06 00:48 17.75384 -76.35507 11758 ft 374 kts 115°
2026-05-06 00:49 17.74431 -76.32953 12233 ft 379 kts 105°
2026-05-06 00:49 17.74139 -76.30190 12703 ft 384 kts 87°
2026-05-06 00:49 17.74667 -76.27437 13178 ft 389 kts 69°
2026-05-06 00:49 17.75983 -76.24943 13642 ft 394 kts 51°
2026-05-06 00:50 17.77975 -76.22977 14091 ft 396 kts 33°
2026-05-06 00:50 17.80463 -76.21738 14525 ft 397 kts 15°
2026-05-06 00:50 17.83196 -76.21362 14997 ft 398 kts 356°
2026-05-06 00:50 17.85906 -76.21887 15457 ft 398 kts 340°
2026-05-06 00:51 17.88525 -76.22854 15953 ft 400 kts 340°
2026-05-06 00:51 17.91161 -76.23834 16455 ft 402 kts 339°
2026-05-06 00:51 17.93801 -76.24813 16958 ft 404 kts 339°
2026-05-06 00:51 17.96460 -76.25795 17467 ft 406 kts 340°
2026-05-06 00:52 17.99128 -76.26775 17980 ft 408 kts 339°
2026-05-06 00:52 18.01824 -76.27767 18446 ft 411 kts 340°
2026-05-06 00:52 18.04532 -76.28764 18904 ft 413 kts 339°
2026-05-06 00:52 18.07241 -76.29763 19370 ft 413 kts 339°
2026-05-06 00:53 18.09962 -76.30768 19803 ft 415 kts 340°
2026-05-06 00:53 18.12684 -76.31776 20256 ft 415 kts 340°
2026-05-06 00:53 18.15417 -76.32788 20677 ft 417 kts 340°
2026-05-06 00:53 18.18166 -76.33805 21063 ft 420 kts 340°
2026-05-06 00:54 18.20891 -76.34813 21472 ft 421 kts 340°
2026-05-06 00:54 18.23668 -76.35838 21839 ft 423 kts 340°
2026-05-06 00:54 18.26454 -76.36867 22218 ft 425 kts 340°
2026-05-06 00:54 18.29254 -76.37902 22587 ft 426 kts 340°
2026-05-06 00:55 18.32055 -76.38940 22981 ft 427 kts 340°
2026-05-06 00:55 18.34861 -76.39980 23341 ft 428 kts 340°
2026-05-06 00:55 18.37677 -76.41025 23668 ft 430 kts 340°
2026-05-06 00:55 18.40499 -76.42074 23950 ft 431 kts 340°
2026-05-06 00:56 18.43331 -76.43126 24220 ft 432 kts 340°
2026-05-06 00:56 18.46170 -76.44178 24497 ft 434 kts 340°
2026-05-06 00:56 18.49019 -76.45234 24765 ft 435 kts 340°
2026-05-06 00:56 18.51882 -76.46295 25018 ft 436 kts 340°
2026-05-06 00:57 18.54752 -76.47358 25280 ft 438 kts 340°
2026-05-06 00:57 18.57628 -76.48423 25538 ft 439 kts 340°
2026-05-06 00:57 18.60518 -76.49495 25802 ft 439 kts 340°
2026-05-06 00:57 18.63404 -76.50569 26053 ft 441 kts 340°
2026-05-06 00:58 18.66299 -76.51647 26310 ft 442 kts 340°
2026-05-06 00:58 18.69198 -76.52728 26637 ft 441 kts 340°
2026-05-06 00:58 18.72087 -76.53802 27009 ft 440 kts 340°
2026-05-06 00:58 18.74970 -76.54878 27377 ft 439 kts 340°
2026-05-06 00:59 18.77841 -76.55949 27742 ft 438 kts 340°
2026-05-06 00:59 18.80713 -76.57017 28120 ft 437 kts 341°
2026-05-06 00:59 18.83576 -76.58078 28516 ft 436 kts 341°
2026-05-06 00:59 18.86428 -76.59140 28916 ft 435 kts 341°
2026-05-06 01:00 18.88313 -76.59845 29188 ft 434 kts 341°
2026-05-06 01:00 18.91154 -76.60906 29618 ft 432 kts 341°
2026-05-06 01:00 18.94906 -76.62305 30153 ft 431 kts 341°
2026-05-06 01:00 18.96813 -76.63017 30387 ft 430 kts 341°
2026-05-06 01:01 19.00548 -76.64412 30847 ft 430 kts 340°
2026-05-06 01:01 19.03365 -76.65467 31209 ft 429 kts 340°
2026-05-06 01:01 19.05266 -76.66178 31462 ft 429 kts 340°
2026-05-06 01:01 19.08984 -76.67570 31929 ft 428 kts 340°
2026-05-06 01:02 19.10881 -76.68278 32000 ft 428 kts 340°
2026-05-06 01:02 19.16588 -76.70414 32036 ft 441 kts 340°
2026-05-06 01:03 19.22407 -76.72588 32035 ft 445 kts 340°
2026-05-06 01:03 19.28252 -76.74773 32035 ft 445 kts 340°
2026-05-06 01:04 19.34053 -76.76948 32038 ft 445 kts 340°
2026-05-06 01:04 19.39894 -76.79144 32036 ft 445 kts 340°
2026-05-06 01:05 19.45729 -76.81342 32034 ft 445 kts 340°
2026-05-06 01:05 19.51560 -76.83535 32033 ft 444 kts 340°
2026-05-06 01:06 19.57390 -76.85731 32030 ft 445 kts 340°
2026-05-06 01:06 19.63220 -76.87918 32033 ft 444 kts 340°
2026-05-06 01:07 19.69055 -76.90119 32045 ft 444 kts 340°
2026-05-06 01:07 19.74836 -76.92300 32056 ft 443 kts 340°
2026-05-06 01:08 19.80652 -76.94487 32050 ft 443 kts 340°
2026-05-06 01:08 19.86473 -76.96681 32047 ft 443 kts 340°
2026-05-06 01:09 19.92279 -76.98888 32049 ft 443 kts 340°
2026-05-06 01:09 19.98092 -77.01083 32052 ft 443 kts 340°
2026-05-06 01:10 20.03894 -77.03277 32075 ft 442 kts 340°
2026-05-06 01:10 20.09652 -77.05459 32076 ft 441 kts 340°
2026-05-06 01:11 20.15429 -77.07647 32070 ft 439 kts 340°
2026-05-06 01:11 20.21183 -77.09843 32047 ft 439 kts 340°
2026-05-06 01:12 20.26929 -77.12021 32043 ft 437 kts 340°
2026-05-06 01:12 20.32680 -77.14187 32039 ft 438 kts 340°
2026-05-06 01:13 20.38431 -77.16377 32049 ft 439 kts 339°
2026-05-06 01:13 20.44181 -77.18557 32036 ft 437 kts 340°
2026-05-06 01:14 20.52794 -77.21845 32038 ft 438 kts 339°
2026-05-06 01:14 20.58546 -77.24033 32041 ft 438 kts 340°
2026-05-06 01:15 20.64259 -77.26212 32044 ft 439 kts 340°
2026-05-06 01:15 20.70009 -77.28409 32068 ft 438 kts 339°
2026-05-06 01:16 20.75744 -77.30612 32071 ft 438 kts 339°
2026-05-06 01:16 20.81475 -77.32803 32077 ft 437 kts 339°
2026-05-06 01:17 20.87214 -77.35003 32069 ft 437 kts 339°
2026-05-06 01:17 20.92941 -77.37198 32070 ft 437 kts 339°
2026-05-06 01:18 20.98667 -77.39396 32074 ft 437 kts 339°
2026-05-06 01:18 21.04396 -77.41599 32073 ft 436 kts 339°
2026-05-06 01:19 21.10110 -77.43792 32071 ft 436 kts 339°
2026-05-06 01:19 21.15790 -77.45973 32065 ft 436 kts 339°
2026-05-06 01:20 21.21504 -77.48170 32058 ft 436 kts 339°
2026-05-06 01:20 21.27216 -77.50370 32058 ft 436 kts 339°
2026-05-06 01:21 21.32935 -77.52572 32074 ft 437 kts 339°
2026-05-06 01:21 21.38654 -77.54773 32085 ft 435 kts 339°
2026-05-06 01:22 21.44355 -77.56963 32091 ft 434 kts 339°
2026-05-06 01:22 21.50042 -77.59165 32085 ft 433 kts 339°
2026-05-06 01:23 21.55675 -77.61351 32074 ft 433 kts 339°
2026-05-06 01:23 21.61347 -77.63539 32067 ft 433 kts 339°
2026-05-06 01:24 21.67017 -77.65736 32070 ft 433 kts 339°
2026-05-06 01:24 21.72688 -77.67939 32082 ft 433 kts 339°
2026-05-06 01:25 21.78360 -77.70137 32084 ft 433 kts 339°
2026-05-06 01:25 21.84027 -77.72340 32085 ft 433 kts 339°
2026-05-06 01:26 21.89685 -77.74540 32079 ft 432 kts 339°
2026-05-06 01:26 21.95337 -77.76738 32076 ft 432 kts 339°
2026-05-06 01:27 22.00967 -77.78932 32082 ft 432 kts 338°
2026-05-06 01:27 22.06619 -77.81133 32086 ft 431 kts 338°
2026-05-06 01:28 22.12273 -77.83335 32083 ft 431 kts 338°
2026-05-06 01:28 22.17910 -77.85537 32081 ft 431 kts 338°
2026-05-06 01:29 22.23548 -77.87733 32078 ft 431 kts 338°
2026-05-06 01:29 22.29183 -77.89933 32077 ft 431 kts 338°
2026-05-06 01:30 22.34825 -77.92144 32103 ft 431 kts 338°
2026-05-06 01:30 22.40461 -77.94353 32092 ft 430 kts 338°
2026-05-06 01:31 22.46081 -77.96553 32083 ft 430 kts 338°
2026-05-06 01:31 22.51703 -77.98763 32079 ft 429 kts 338°
2026-05-06 01:32 22.57321 -78.00972 32080 ft 429 kts 338°
2026-05-06 01:32 22.62951 -78.03178 32074 ft 429 kts 338°
2026-05-06 01:33 22.68564 -78.05379 32078 ft 429 kts 338°
2026-05-06 01:33 22.74165 -78.07586 32075 ft 428 kts 338°
2026-05-06 01:34 22.79746 -78.09762 32070 ft 428 kts 339°
2026-05-06 01:34 22.85476 -78.11588 32067 ft 429 kts 342°
2026-05-06 01:35 22.91244 -78.13197 32051 ft 427 kts 342°
2026-05-06 01:35 22.97020 -78.14846 32046 ft 430 kts 342°
2026-05-06 01:36 23.02796 -78.16573 32061 ft 431 kts 341°
2026-05-06 01:36 23.08599 -78.18328 32075 ft 433 kts 341°
2026-05-06 01:37 23.14399 -78.20054 32082 ft 432 kts 341°
2026-05-06 01:37 23.20185 -78.21788 32079 ft 431 kts 341°
2026-05-06 01:38 23.25955 -78.23518 32073 ft 428 kts 341°
2026-05-06 01:38 23.31690 -78.25244 32082 ft 426 kts 341°
2026-05-06 01:39 23.37367 -78.26955 32068 ft 426 kts 341°
2026-05-06 01:39 23.43099 -78.28682 32049 ft 428 kts 341°
2026-05-06 01:40 23.48847 -78.30407 32049 ft 428 kts 341°
2026-05-06 01:40 23.54586 -78.32139 32053 ft 427 kts 341°
2026-05-06 01:41 23.60327 -78.33869 32056 ft 427 kts 341°
2026-05-06 01:41 23.66036 -78.35588 32071 ft 428 kts 341°
2026-05-06 01:42 23.71759 -78.37320 32058 ft 427 kts 341°
2026-05-06 01:42 23.77504 -78.39062 32072 ft 428 kts 341°
2026-05-06 01:43 23.83243 -78.40800 32075 ft 428 kts 341°
2026-05-06 01:43 23.88994 -78.42542 32078 ft 427 kts 341°
2026-05-06 01:44 23.94718 -78.44282 32068 ft 426 kts 341°
2026-05-06 01:44 23.99496 -78.45624 32075 ft 429 kts 347°
2026-05-06 01:45 24.06496 -78.45835 32072 ft 434 kts 355°
2026-05-06 01:45 24.12535 -78.45800 32064 ft 434 kts 355°
2026-05-06 01:46 24.17566 -78.45782 32061 ft 434 kts 355°
2026-05-06 01:46 24.23607 -78.45751 32063 ft 434 kts 355°
2026-05-06 01:47 24.29647 -78.45712 32063 ft 434 kts 355°
2026-05-06 01:47 24.35693 -78.45666 32061 ft 434 kts 355°
2026-05-06 01:48 24.41738 -78.45627 32059 ft 434 kts 355°
2026-05-06 01:48 24.47776 -78.45606 32062 ft 434 kts 355°
2026-05-06 01:49 24.53823 -78.45600 32059 ft 434 kts 355°
2026-05-06 01:49 24.59859 -78.45592 32079 ft 433 kts 355°
2026-05-06 01:50 24.62854 -78.45586 31482 ft 431 kts 355°
2026-05-06 01:50 24.65903 -78.45581 30217 ft 444 kts 355°
2026-05-06 01:50 24.68966 -78.45575 29526 ft 443 kts 355°
2026-05-06 01:50 24.72059 -78.45568 29275 ft 446 kts 355°
2026-05-06 01:51 24.75504 -78.45559 28940 ft 447 kts 355°
2026-05-06 01:51 24.78607 -78.45550 28622 ft 441 kts 355°
2026-05-06 01:51 24.81629 -78.45538 28314 ft 429 kts 355°
2026-05-06 01:51 24.84586 -78.45525 28009 ft 419 kts 355°
2026-05-06 01:52 24.87468 -78.45516 27702 ft 411 kts 355°
2026-05-06 01:52 24.90310 -78.45522 27415 ft 406 kts 355°
2026-05-06 01:52 24.93102 -78.45541 27130 ft 403 kts 355°
2026-05-06 01:52 24.95913 -78.45563 26844 ft 402 kts 355°
2026-05-06 01:53 24.98707 -78.45584 26550 ft 401 kts 355°
2026-05-06 01:53 25.01490 -78.45601 26266 ft 399 kts 355°
2026-05-06 01:53 25.04265 -78.45613 25982 ft 398 kts 355°
2026-05-06 01:53 25.07034 -78.45624 25700 ft 397 kts 355°
2026-05-06 01:54 25.09797 -78.45637 25424 ft 397 kts 355°
2026-05-06 01:54 25.12555 -78.45652 25153 ft 396 kts 355°
2026-05-06 01:54 25.15304 -78.45667 24874 ft 395 kts 355°
2026-05-06 01:54 25.18051 -78.45680 24543 ft 394 kts 355°
2026-05-06 01:55 25.20790 -78.45691 24221 ft 392 kts 355°
2026-05-06 01:55 25.23513 -78.45703 23892 ft 390 kts 355°
2026-05-06 01:55 25.26191 -78.45718 23550 ft 389 kts 355°
2026-05-06 01:55 25.28899 -78.45733 23161 ft 388 kts 355°
2026-05-06 01:56 25.31586 -78.45745 22781 ft 385 kts 355°
2026-05-06 01:56 25.34266 -78.45759 22402 ft 383 kts 354°
2026-05-06 01:56 25.36873 -78.46148 22021 ft 374 kts 340°
2026-05-06 01:56 25.39245 -78.47231 21650 ft 366 kts 327°
2026-05-06 01:57 25.41267 -78.48902 21285 ft 361 kts 314°
2026-05-06 01:57 25.42840 -78.51043 20916 ft 359 kts 301°
2026-05-06 01:57 25.43936 -78.53510 20494 ft 357 kts 293°
2026-05-06 01:57 25.44908 -78.56033 20129 ft 356 kts 293°
2026-05-06 01:58 25.45875 -78.58553 19779 ft 355 kts 293°
2026-05-06 01:58 25.46839 -78.61070 19433 ft 354 kts 293°
2026-05-06 01:58 25.47795 -78.63575 19091 ft 353 kts 293°
2026-05-06 01:58 25.48740 -78.66045 18759 ft 352 kts 293°
2026-05-06 01:59 25.49695 -78.68541 18421 ft 351 kts 293°
2026-05-06 01:59 25.50639 -78.71015 18049 ft 347 kts 293°
2026-05-06 01:59 25.51569 -78.73457 17674 ft 342 kts 293°
2026-05-06 01:59 25.52491 -78.75873 17291 ft 338 kts 293°
2026-05-06 02:00 25.53402 -78.78256 16916 ft 334 kts 293°
2026-05-06 02:00 25.54307 -78.80612 16547 ft 331 kts 293°
2026-05-06 02:00 25.55203 -78.82950 16177 ft 329 kts 293°
2026-05-06 02:00 25.56089 -78.85273 15818 ft 327 kts 293°
2026-05-06 02:01 25.56973 -78.87590 15462 ft 326 kts 293°
2026-05-06 02:01 25.57851 -78.89894 15106 ft 324 kts 292°
2026-05-06 02:01 25.58727 -78.92198 14756 ft 323 kts 292°
2026-05-06 02:01 25.59597 -78.94487 14414 ft 322 kts 292°
2026-05-06 02:02 25.60462 -78.96766 14073 ft 320 kts 292°
2026-05-06 02:02 25.61324 -78.99038 13707 ft 319 kts 292°
2026-05-06 02:02 25.62182 -79.01298 13331 ft 318 kts 292°
2026-05-06 02:02 25.63037 -79.03548 12953 ft 316 kts 292°
2026-05-06 02:03 25.63885 -79.05786 12581 ft 314 kts 292°
2026-05-06 02:03 25.64722 -79.08016 12211 ft 313 kts 292°
2026-05-06 02:03 25.65552 -79.10234 11847 ft 311 kts 292°
2026-05-06 02:03 25.66371 -79.12423 11492 ft 310 kts 292°
2026-05-06 02:04 25.67194 -79.14622 11127 ft 308 kts 292°
2026-05-06 02:04 25.68016 -79.16813 10775 ft 306 kts 291°
2026-05-06 02:04 25.68832 -79.18985 10424 ft 305 kts 291°
2026-05-06 02:04 25.69642 -79.21145 10171 ft 303 kts 291°
2026-05-06 02:05 25.70451 -79.23298 9933 ft 300 kts 291°
2026-05-06 02:05 25.71244 -79.25412 9675 ft 294 kts 291°
2026-05-06 02:05 25.72020 -79.27486 9420 ft 289 kts 291°
2026-05-06 02:05 25.72783 -79.29526 9167 ft 284 kts 291°
2026-05-06 02:06 25.73530 -79.31534 8922 ft 280 kts 291°
2026-05-06 02:06 25.74260 -79.33521 8671 ft 276 kts 291°
2026-05-06 02:06 25.74979 -79.35489 8425 ft 275 kts 291°
2026-05-06 02:06 25.75698 -79.37449 8181 ft 274 kts 292°
2026-05-06 02:07 25.76416 -79.39409 7935 ft 273 kts 292°
2026-05-06 02:07 25.77132 -79.41363 7693 ft 272 kts 292°
2026-05-06 02:07 25.77844 -79.43307 7452 ft 272 kts 292°
2026-05-06 02:07 25.78554 -79.45245 7211 ft 271 kts 292°
2026-05-06 02:08 25.79263 -79.47177 6974 ft 270 kts 292°
2026-05-06 02:08 25.79959 -79.49081 6752 ft 270 kts 292°
2026-05-06 02:08 25.80663 -79.51010 6513 ft 270 kts 292°
2026-05-06 02:08 25.81363 -79.52936 6264 ft 268 kts 292°
2026-05-06 02:09 25.82054 -79.54842 6066 ft 264 kts 292°
2026-05-06 02:09 25.82742 -79.56736 6020 ft 265 kts 292°
2026-05-06 02:09 25.83434 -79.58640 6026 ft 265 kts 292°
2026-05-06 02:09 25.84127 -79.60534 6025 ft 264 kts 292°
2026-05-06 02:10 25.84838 -79.62438 6026 ft 268 kts 293°
2026-05-06 02:10 25.85558 -79.64340 6026 ft 268 kts 293°
2026-05-06 02:10 25.86324 -79.66239 6029 ft 268 kts 295°
2026-05-06 02:10 25.87121 -79.68099 6026 ft 265 kts 296°
2026-05-06 02:11 25.87928 -79.69942 6026 ft 267 kts 296°
2026-05-06 02:11 25.88744 -79.71795 6028 ft 267 kts 296°
2026-05-06 02:11 25.89554 -79.73646 6032 ft 265 kts 295°
2026-05-06 02:11 25.90351 -79.75480 6028 ft 263 kts 295°
2026-05-06 02:12 25.91140 -79.77314 6027 ft 263 kts 295°
2026-05-06 02:12 25.91929 -79.79161 6027 ft 267 kts 295°
2026-05-06 02:12 25.92715 -79.81002 6024 ft 267 kts 295°
2026-05-06 02:12 25.93516 -79.82875 6028 ft 268 kts 295°
2026-05-06 02:13 25.94309 -79.84736 6029 ft 266 kts 295°
2026-05-06 02:13 25.95096 -79.86589 6026 ft 265 kts 295°
2026-05-06 02:13 25.95883 -79.88447 6033 ft 266 kts 295°
2026-05-06 02:13 25.96672 -79.90310 6031 ft 268 kts 295°
2026-05-06 02:14 25.97472 -79.92192 6027 ft 270 kts 295°
2026-05-06 02:14 25.98272 -79.94076 6025 ft 270 kts 295°
2026-05-06 02:14 25.99259 -79.95846 6033 ft 270 kts 309°
2026-05-06 02:14 26.00512 -79.97392 6023 ft 268 kts 311°
2026-05-06 02:15 26.01764 -79.98928 6022 ft 269 kts 310°
2026-05-06 02:15 26.03010 -80.00465 6020 ft 267 kts 310°
2026-05-06 02:15 26.04250 -80.01999 6018 ft 266 kts 311°
2026-05-06 02:15 26.05497 -80.03542 6019 ft 269 kts 310°
2026-05-06 02:16 26.06744 -80.05084 6016 ft 268 kts 311°
2026-05-06 02:16 26.07998 -80.06636 6022 ft 270 kts 311°
2026-05-06 02:16 26.09248 -80.08181 6019 ft 267 kts 310°
2026-05-06 02:16 26.10091 -80.09224 6021 ft 268 kts 310°
2026-05-06 02:17 26.11738 -80.11258 6015 ft 266 kts 310°
2026-05-06 02:17 26.12577 -80.12292 6018 ft 267 kts 311°
2026-05-06 02:17 26.13782 -80.13832 6022 ft 268 kts 305°
2026-05-06 02:17 26.14653 -80.15644 6025 ft 265 kts 289°
2026-05-06 02:18 26.15020 -80.17646 6017 ft 266 kts 272°
2026-05-06 02:18 26.15034 -80.19716 6012 ft 269 kts 270°
2026-05-06 02:18 26.15040 -80.21805 5720 ft 268 kts 270°
2026-05-06 02:18 26.15047 -80.23872 5582 ft 267 kts 270°
2026-05-06 02:19 26.15055 -80.25935 5470 ft 266 kts 270°
2026-05-06 02:19 26.15063 -80.27971 5349 ft 259 kts 270°
2026-05-06 02:19 26.15073 -80.29945 5226 ft 252 kts 271°
2026-05-06 02:19 26.15082 -80.31906 4834 ft 256 kts 271°
2026-05-06 02:20 26.14895 -80.35912 3990 ft 263 kts 251°
2026-05-06 02:20 26.13967 -80.37674 3576 ft 269 kts 226°
2026-05-06 02:20 26.12433 -80.38847 3163 ft 270 kts 199°
2026-05-06 02:21 26.10617 -80.39144 3011 ft 260 kts 172°
2026-05-06 02:21 26.08992 -80.38508 3010 ft 240 kts 141°
2026-05-06 02:21 26.07992 -80.37116 3015 ft 230 kts 109°
2026-05-06 02:21 26.07829 -80.35390 3019 ft 226 kts 82°
2026-05-06 02:22 26.07984 -80.33699 3006 ft 213 kts 88°
2026-05-06 02:22 26.07907 -80.32071 2722 ft 212 kts 95°
2026-05-06 02:22 26.07795 -80.30448 2418 ft 210 kts 92°
2026-05-06 02:22 26.07760 -80.28837 2125 ft 206 kts 89°
2026-05-06 02:23 26.07748 -80.27262 1866 ft 202 kts 90°
2026-05-06 02:23 26.07741 -80.25737 1622 ft 192 kts 89°
2026-05-06 02:23 26.07733 -80.24312 1354 ft 176 kts 89°
2026-05-06 02:23 26.07727 -80.23042 1152 ft 153 kts 89°
2026-05-06 02:24 26.07722 -80.21877 955 ft 149 kts 89°
2026-05-06 02:24 26.07716 -80.20731 772 ft 147 kts 92°
2026-05-06 02:24 26.07692 -80.19585 577 ft 147 kts 90°
2026-05-06 02:24 26.07698 -80.18469 409 ft 143 kts 87°
2026-05-06 02:25 26.07703 -80.17380 189 ft 141 kts 89°
2026-05-06 02:25 26.07695 -80.16293 45 ft 140 kts 90°
2026-05-06 02:25 26.07690 -80.15316 16 ft 99 kts 90°
2026-05-06 02:25 26.07686 -80.14890 19 ft 15 kts 90°
2026-05-06 02:26 26.07680 -80.14773 19 ft 16 kts 100°
2026-05-06 02:26 26.07648 -80.14652 20 ft 17 kts 108°
2026-05-06 02:26 26.07568 -80.14583 17 ft 10 kts 152°
2026-05-06 02:26 26.07560 -80.14511 17 ft 10 kts 92°
2026-05-06 02:27 26.07558 -80.14421 17 ft 13 kts 90°
2026-05-06 02:27 26.07558 -80.14313 17 ft 15 kts 90°
2026-05-06 02:27 26.07498 -80.14240 16 ft 16 kts 204°
2026-05-06 02:27 26.07409 -80.14289 17 ft 3 kts 195°
2026-05-06 02:28 26.07394 -80.14294 16 ft 0 kts 196°